Location: Strada George Coșbuc
(47.6577°N, 23.5639°E)
Time: 06:48:12
(UTC+03:00)

Envisat - Visible Passes

Search period start: 25 September 2020 00:00
Search period end: 05 October 2020 00:00
Orbit: 764 x 766 km, 98.1° (Epoch: 24 September)

Date Brightness Start Highest point End Pass type
(mag) Time Alt. Az. Time Alt. Az. Time Alt. Az.
25 Sep 5.9 06:30:33 10° NE 06:34:27 22° E 06:38:19 10° SE visible
27 Sep 6.1 19:54:04 10° SW 19:57:33 18° W 20:01:03 10° NW visible
28 Sep 6.1 06:19:34 10° NE 06:22:57 18° E 06:26:19 10° SE visible
29 Sep 6.7 20:22:16 10° W 20:23:21 11° W 20:24:26 10° WNW visible
30 Sep 5.4 06:44:15 10° NE 06:48:40 29° E 06:53:03 10° SSE visible
30 Sep 5.9 19:42:06 10° SW 19:46:04 23° W 19:50:04 10° NW visible
01 Oct 6.3 06:08:48 10° NE 06:11:27 14° E 06:14:05 10° ESE visible
02 Oct 6.4 20:09:19 10° WSW 20:11:49 14° W 20:14:20 10° WNW visible
03 Oct 5.8 06:33:08 10° NE 06:37:12 23° E 06:41:14 10° SE visible
03 Oct 5.5 19:30:16 10° SSW 19:34:36 28° W 19:38:58 10° NW visible
04 Oct 6.6 05:58:31 10° ENE 05:59:55 11° E 06:01:18 10° E visible
